This demonstration page uses our WeatherBlox Daily Observations layout. Learn more.

Left ArrowRight Arrow

34.74481, -87.66753

Hourly Observations for February 11, 2021

Temp ( °F °C ) Dew Point ( °F °C ) Humidity (%) Winds ( mph kmh ) Pressure ( in mb ) Visibility ( mi km ) Precip ( " mm )
12:53 am 00:53 Cloudy 49 9.4 39 3.9 69 69 N 6 9 30.05 1018 8 13 0.00 0.00
1:53 am 01:53 Cloudy 48 8.9 38 3.3 68 68 N 5 7 30.03 1017 8 13 0.00 0.00
2:20 am 02:20 Cloudy 49 9.4 38 3.3 66 66 NW 6 9 30.06 1018 8 13 0.00 0.00
2:53 am 02:53 Cloudy 49 9.4 38 3.3 66 66 NNW 6 9 30.03 1017 7 11 0.00 0.00
3:53 am 03:53 Cloudy with Light Rain 46 7.8 38 3.3 73 73 N 8 13 30.03 1017 6 10 0.02 0.51
4:53 am 04:53 Cloudy with Light Rain 45 7.2 38 3.3 77 77 NNE 7 11 30.03 1017 5 8 0.06 1.52
5:00 am 05:00 Cloudy with Light Rain 44 6.7 38 3.3 79 79 N 7 11 30.07 1018 5 8 0.01 0.25
5:12 am 05:12 Cloudy with Rain 44 6.7 38 3.3 79 79 N 7 11 30.07 1018 4 6 0.03 0.76
5:53 am 05:53 Cloudy 43 6.1 37 2.8 80 80 N 7 11 30.06 1018 9 14 0.03 0.76
6:53 am 06:53 Cloudy with Light Rain 42 5.6 36 2.2 79 79 NNE 9 15 30.05 1018 8 13 0.01 0.25
7:53 am 07:53 Cloudy 41 5 35 1.7 79 79 VRB 5 7 30.06 1018 10 16 0.06 1.52
8:13 am 08:13 Cloudy 41 5 34 1.1 76 76 NNE 7 11 30.08 1019 8 13 0.00 0.00
8:30 am 08:30 Cloudy 41 5 35 1.7 79 79 N 7 11 30.09 1019 10 16 0.00 0.00
8:53 am 08:53 Cloudy with Light Rain 41 5 35 1.7 79 79 N 6 9 30.06 1018 10 16 0.00 0.00
9:53 am 09:53 Cloudy with Rain 41 5 35 1.7 79 79 N 7 11 30.09 1019 3 5 0.06 1.52
10:33 am 10:33 Cloudy with Heavy Rain 41 5 35 1.7 79 79 NE 7 11 30.10 1019 2 3 0.15 3.81
10:42 am 10:42 Cloudy with Heavy Rain 40 4.4 35 1.7 83 83 ENE 8 13 30.08 1019 3 4 0.20 5.08
10:44 am 10:44 Cloudy with Heavy Rain 40 4.4 34 1.1 79 79 ENE 8 13 30.08 1019 3 4 0.21 5.33
10:53 am 10:53 Cloudy with Rain 40 4.4 35 1.7 83 83 NW 8 13 30.10 1019 3 5 0.24 6.10
11:36 am 11:36 Cloudy with Light Rain 41 5 35 1.7 79 79 NNW 6 9 30.11 1020 10 16 0.03 0.76
11:53 am 11:53 Cloudy with Rain 40 4.4 34 1.1 79 79 NNE 8 13 30.06 1018 7 11 0.04 1.02
12:03 pm 12:03 Cloudy with Rain 40 4.4 34 1.1 79 79 N 7 11 30.08 1019 6 10 0.01 0.25
12:53 pm 12:53 Cloudy with Light Rain 40 4.4 34 1.1 79 79 VRB 3 6 30.05 1018 9 14 0.04 1.02
1:08 pm 13:08 Cloudy with Light Rain 40 4.4 34 1.1 79 79 NNW 7 11 30.07 1018 5 8 0.01 0.25
1:19 pm 13:19 Cloudy with Light Rain 40 4.4 34 1.1 79 79 VRB 6 9 30.07 1018 6 10 0.02 0.51
1:31 pm 13:31 Cloudy with Light Rain 40 4.4 33 0.6 77 77 N 6 9 30.07 1018 10 16 0.02 0.51
1:53 pm 13:53 Cloudy with Light Rain 40 4.4 34 1.1 79 79 NNW 6 9 30.06 1018 4 6 0.03 0.76
2:25 pm 14:25 Cloudy with Haze 40 4.4 34 1.1 79 79 N 5 7 30.05 1018 4 6 0.00 0.00
2:53 pm 14:53 Cloudy 40 4.4 33 0.6 77 77 VRB 7 11 30.04 1017 9 14 0.00 0.00
3:37 pm 15:37 Cloudy with Light Rain 40 4.4 34 1.1 79 79 N 6 9 30.07 1018 3 4 0.01 0.25
3:45 pm 15:45 Cloudy with Light Rain 40 4.4 34 1.1 79 79 N 7 11 30.07 1018 4 6 0.01 0.25
3:53 pm 15:53 Cloudy with Haze 40 4.4 34 1.1 79 79 N 7 11 30.06 1018 6 10 0.01 0.25
4:53 pm 16:53 Cloudy 39 3.9 33 0.6 79 79 NNE 7 11 30.07 1018 10 16 0.00 0.00
5:29 pm 17:29 Cloudy 39 3.9 32 0 76 76 N 6 9 30.09 1019 10 16 0.00 0.00
5:46 pm 17:46 Cloudy 39 3.9 33 0.6 79 79 N 6 9 30.09 1019 10 16 0.00 0.00
5:53 pm 17:53 Cloudy 39 3.9 33 0.6 79 79 N 5 7 30.07 1018 10 16 0.00 0.00
6:53 pm 18:53 Cloudy 38 3.3 32 0 79 79 N 6 9 30.09 1019 10 16 0.00 0.00
7:53 pm 19:53 Cloudy with Haze 37 2.8 31 -0.6 79 79 NNE 9 15 30.07 1018 5 8 0.00 0.00
8:53 pm 20:53 Cloudy 37 2.8 31 -0.6 79 79 N 7 11 30.08 1019 8 13 0.00 0.00
9:53 pm 21:53 Cloudy with Haze 36 2.2 30 -1.1 79 79 N 8 13 30.09 1019 6 10 0.00 0.00
10:53 pm 22:53 Cloudy 37 2.8 30 -1.1 76 76 N 7 11 30.09 1019 7 11 0.00 0.00
11:53 pm 23:53 Cloudy 36 2.2 30 -1.1 79 79 NNW 8 13 30.10 1019 7 11 0.00 0.00

Powered by AerisWeather